Погода в Вязовой

Россия / Орловская область     53°28′11″N   35°45′52″E
темп.,
°C
ветер,
м/с
пор.,
м/с
влажн.,
%
обл.,
%
осадки,
мм/ч
давл.,
гПа
погр.,
м
6 мая, чт
чт600:00+9ю5139197 0.1 1009307
03:00+8ю41392100 0.1 1008320
06:00+10ю71774100 0.0 1007728
09:00+12ююз81671100 0.0 10071399
12:00+12ю10176291 0.1 10051449
15:00+9ююз91582100 0.4 10061078
18:00+8зюз5108898 0.9 1008774
21:00+6юз379480 0.9 1010157
7 мая, пт
пт700:00+5зюз379599 0.1 1012147
03:00+4зюз389273 0.1 1013146
06:00+4юз378927 0.0 1014145
09:00+10юз47605 0.0 1015591
12:00+13ююз694310 0.0 10142039
15:00+14ююз6946100 0.0 10132229
18:00+13ю5961100 0.1 1012974
21:00+9ююв41274100 0.1 1012321
8 мая, сб
сб800:00+9ю51478100 0.1 1010684
03:00+10ююв61575100 0.2 1008764
06:00+9ююв71494100 4.2 1005896
09:00+10ююз51197100 6.8 1004736
12:00+10зюз4891100 0.2 1005557
15:00+9зюз51189100 0.5 1006727
18:00+8з8117896 0.1 10081107
21:00+4з3886100 0.1 1012315
9 мая, вс
вс900:00+4з41188100 0.0 1013489
03:00+2з410925 0.0 1015311
06:00+2з31095100 0.0 1017428
09:00+7сз4667100 0.0 10191163
12:00+10ссз675366 0.1 10201789
15:00+11с684584 0.1 10212141
18:00+11с57514 0.0 10221327
21:00+6ссз36715 0.0 102593
10 мая, пн
пн1000:00+4ссз35735 0.0 102669
03:00+3ссз34725 0.0 102864
06:00+3ссв36748 0.0 1029114
09:00+10св3651100 0.0 1029552
12:00+13св564346 0.0 10291355
15:00+14св56412 0.0 10281463
18:00+14всв35560 0.0 1028955
21:00+8св34772 0.0 102948